Tinker AFB, OK

8:10 AM CDT on June 23, 2017 (GMT -0500)
Tinker Air Force Base

Weather History for KTIK - January, 2013

Change the Weather History Date:

Friday, January 25, 2013

  Actual Average Record
Temperature  
Mean Temperature 38 °F -  
Max Temperature 49 °F 47 °F 69 °F (2005)
Min Temperature 26 °F 27 °F 21 °F (1997)
Degree Days  
Heating Degree Days 28    
Moisture  
Dew Point 29 °F    
Average Humidity 80    
Maximum Humidity 100    
Minimum Humidity 47    
Precipitation  
Precipitation 0.00 in - - ()
Sea Level Pressure  
Sea Level Pressure 30.21 in    
Wind  
Wind Speed 10 mph (North)    
Max Wind Speed 17 mph    
Max Gust Speed -    
Visibility 9 miles    
Events      
Averages and records for this station are not official NWS values.
T = Trace of Precipitation, MM = Missing Value Source: NWS Daily Summary

Daily Weather History Graph

Daily Weather History Graph

Search for Another Location

Airport or City:

Trip Planner

Search our weather history database for the weather conditions in past years. The results will help you decide how hot, cold, wet, or windy it might be!

Date:

Astronomy

Jan. 25, 2013 Rise Set
Actual Time 7:33 AM CST 5:50 PM CST
Civil Twilight 7:06 AM CST 6:17 PM CST
Nautical Twilight 6:35 AM CST 6:48 PM CST
Astronomical Twilight 6:05 AM CST 7:18 PM CST
Moon 4:49 PM CST (1/25) 6:13 AM CST (1/25)
Length of Visible Light 11h 11m
Length of Day
10h 17m
Waxing Gibbous, 98% of the Moon is Illuminated
Jan 25
Waxing Gibbous
Jan 26
Full
Feb 3
Last Quarter
Feb 10
New
Feb 17
First Quarter

Hourly Weather History & Observations

Time (CST) Temp. Windchill Dew Point Humidity Pressure Visibility Wind Dir Wind Speed Gust Speed Precip Events Conditions
12:55 AM 30.0 °F 21.1 °F 25.0 °F 82% 30.15 in 10.0 mi North 10.4 mph - N/A   Mostly Cloudy
1:55 AM 29.1 °F 17.9 °F 25.2 °F 85% 30.16 in 10.0 mi NNW 15.0 mph - N/A   Partly Cloudy
2:55 AM 28.8 °F 18.4 °F 25.7 °F 88% 30.16 in 10.0 mi North 12.7 mph - N/A   Clear
3:55 AM 27.3 °F 18.4 °F 25.3 °F 92% 30.15 in 8.0 mi NNW 9.2 mph - N/A   Clear
4:16 AM 26.6 °F 16.8 °F 24.8 °F 93% 30.16 in 7.0 mi NNW 10.4 mph - N/A   Partly Cloudy
4:55 AM 27.0 °F 18.7 °F 25.5 °F 94% 30.14 in 8.0 mi North 8.1 mph - N/A   Clear
5:13 AM 26.6 °F 16.8 °F 26.6 °F 100% 30.16 in 8.0 mi NNW 10.4 mph - N/A   Mostly Cloudy
5:28 AM 28.4 °F 19.1 °F 26.6 °F 93% 30.16 in 9.0 mi NNW 10.4 mph - N/A   Overcast
5:55 AM 28.2 °F 18.9 °F 26.2 °F 92% 30.17 in 10.0 mi North 10.4 mph - N/A   Overcast
6:42 AM 28.4 °F 16.2 °F 26.6 °F 93% 30.20 in 8.0 mi North 17.3 mph - N/A   Overcast
6:55 AM 28.8 °F 17.0 °F 26.8 °F 92% 30.20 in 7.0 mi NNW 16.1 mph - N/A   Overcast
7:02 AM 28.4 °F 18.0 °F 26.6 °F 93% 30.21 in 9.0 mi NNW 12.7 mph - N/A   Overcast
7:55 AM 28.8 °F 20.2 °F 26.8 °F 92% 30.23 in 7.0 mi North 9.2 mph - N/A   Overcast
8:42 AM 30.2 °F 20.2 °F 28.4 °F 93% 30.25 in 6.0 mi North 12.7 mph - N/A   Overcast
8:55 AM 29.7 °F 21.3 °F 28.0 °F 94% 30.25 in 5.0 mi North 9.2 mph - N/A   Overcast
9:43 AM 32.0 °F 25.6 °F 30.2 °F 93% 30.26 in 6.0 mi North 6.9 mph - N/A   Overcast
9:55 AM 31.6 °F 27.0 °F 29.8 °F 93% 30.26 in 6.0 mi NNW 4.6 mph - N/A   Overcast
10:26 AM 33.8 °F 27.0 °F 30.2 °F 87% 30.26 in 8.0 mi North 8.1 mph - N/A   Overcast
10:55 AM 34.3 °F 29.2 °F 30.7 °F 87% 30.26 in 8.0 mi North 5.8 mph - N/A   Overcast
11:02 AM 35.6 °F 31.7 °F 30.2 °F 81% 30.27 in 10.0 mi North 4.6 mph - N/A   Overcast
11:55 AM 36.5 °F 29.7 °F 31.1 °F 81% 30.27 in 10.0 mi NNW 9.2 mph - N/A   Overcast
12:03 PM 37.4 °F 30.8 °F 32.0 °F 81% 30.26 in 9.0 mi North 9.2 mph - N/A   Overcast
12:55 PM 40.8 °F 35.0 °F 32.9 °F 73% 30.24 in 10.0 mi NNE 9.2 mph - N/A   Mostly Cloudy
1:37 PM 44.6 °F 38.8 °F 32.0 °F 61% 30.22 in 10.0 mi NNE 11.5 mph - N/A   Clear
1:55 PM 44.2 °F 38.8 °F 32.2 °F 63% 30.22 in 10.0 mi NNE 10.4 mph - N/A   Clear
2:55 PM 48.2 °F - 31.5 °F 52% 30.20 in 10.0 mi NE 9.2 mph - N/A   Clear
3:55 PM 49.6 °F - 30.2 °F 47% 30.20 in 10.0 mi NE 5.8 mph - N/A   Clear
4:55 PM 47.8 °F - 29.1 °F 48% 30.22 in 10.0 mi ENE 4.6 mph - N/A   Clear
5:55 PM 44.4 °F 42.9 °F 29.5 °F 56% 30.22 in 10.0 mi ENE 3.5 mph - N/A   Partly Cloudy
6:55 PM 42.3 °F 39.4 °F 30.4 °F 63% 30.22 in 10.0 mi East 4.6 mph - N/A   Scattered Clouds
7:55 PM 41.0 °F 38.0 °F 30.6 °F 66% 30.22 in 10.0 mi ESE 4.6 mph - N/A   Clear
8:55 PM 39.9 °F 36.7 °F 31.1 °F 71% 30.22 in 10.0 mi NE 4.6 mph - N/A   Clear
9:55 PM 38.1 °F 34.6 °F 30.7 °F 75% 30.22 in 10.0 mi NE 4.6 mph - N/A   Clear
10:55 PM 37.6 °F 33.1 °F 30.6 °F 76% 30.24 in 10.0 mi NE 5.8 mph - N/A   Clear
11:55 PM 36.3 °F 32.5 °F 30.0 °F 78% 30.24 in 10.0 mi NNW 4.6 mph - N/A   Clear